Tracking 29892 objects as of 21-Nov-2024
HD Live streaming from Space Station
objects crossing your sky now

STARLINK-31084

Track STARLINK-31084 now!
10-day predictions
STARLINK-31084 is classified as:


NORAD ID: 58630
Int'l Code: 2023-203N
Perigee: 494.1 km
Apogee: 496.2 km
Inclination: 43.0 °
Period: 94.4 minutes
Semi major axis: 6866 km
RCS: Unknown
Launch date: December 23, 2023
Source: United States (US)
Launch site: AIR FORCE EASTERN TEST RANGE (AFETR)
Your satellite tracking list
Your tracking list is empty




NASA's NSSDC Master Catalog

Two Line Element Set (TLE):
1 58630U 23203N   24326.14232745 -.00002752  00000-0 -95360-4 0  9992
2 58630  42.9995 220.1164 0001570 246.8115 113.2571 15.25927182 52388
Source of the keplerian elements: AFSPC